Theta_e
341 341 343 347 347 345 344 343 343 343 342 342 342 343 345 348 348 348 346 345 344 345 345 345 345 344 345 343 341 341 341 341 340 340 340 341 341 342 342 341 341 342 342 343 343 345 345 346 347 346 347 347 347 347 347 347 347 348 347 346 347 346 346 346 345 345 344 344 346 345 344 345 345 346 346 346 346 344 342 342 341 339 338 340 344
341 342 343 344 347 344 344 344 343 342 342 342 340 341 342 342 345 347 346 344 344 344 343 343 341 341 342 342 342 340 340 339 341 341 340 339 339 340 341 340 341 341 342 341 341 342 343 344 345 345 345 346 346 346 346 346 345 345 345 346 346 345 345 345 344 343 343 343 344 343 343 344 345 346 346 346 345 344 342 342 341 338 338 342 342
343 343 343 344 346 344 343 342 342 341 340 339 339 341 342 343 346 346 345 344 344 343 341 340 341 341 341 342 342 341 341 339 338 340 341 340 339 340 340 341 340 340 341 340 341 341 341 341 342 343 345 345 345 346 347 346 345 345 345 345 345 345 344 344 343 342 342 342 342 342 341 343 342 344 346 345 345 344 341 341 341 340 337 343 342
342 343 342 343 344 344 343 343 342 341 340 340 341 340 341 343 346 346 344 343 343 342 341 341 341 340 339 341 341 342 342 342 341 339 338 340 339 340 340 340 340 340 340 340 340 339 339 339 342 343 343 344 344 345 345 345 344 344 344 344 344 344 344 343 342 341 341 340 340 339 337 335 338 344 346 345 344 343 341 341 341 341 341 342 342
342 342 342 341 341 343 342 342 341 340 339 339 339 340 344 345 346 346 345 344 343 342 341 340 340 340 339 343 344 344 344 344 344 342 340 340 340 339 340 339 339 339 339 340 340 339 339 339 341 342 343 343 344 344 344 344 344 343 343 344 344 343 342 342 341 340 340 339 338 336 333 335 336 342 345 345 343 341 341 340 340 341 340 341 341
342 341 341 340 339 340 343 342 341 340 340 339 340 342 344 345 346 345 345 344 343 342 340 340 340 340 343 343 344 343 344 344 344 341 339 337 339 339 339 340 340 341 341 341 341 340 339 339 339 340 341 343 343 343 343 343 343 343 343 343 343 342 341 341 340 339 338 337 336 333 333 334 335 337 345 344 343 341 340 340 341 341 340 340 340
341 341 341 339 338 340 343 342 340 340 340 340 339 345 348 347 347 347 346 344 342 339 339 339 339 343 342 344 344 343 343 343 342 340 338 337 338 338 339 340 339 340 340 339 340 340 340 340 339 338 341 343 343 343 343 343 343 343 343 342 342 341 341 340 339 338 336 334 331 331 332 333 333 334 343 344 342 341 340 341 341 340 340 339 339
341 341 340 339 338 341 343 342 340 340 340 340 340 344 346 347 346 346 346 345 343 341 340 340 340 342 343 343 342 342 342 341 341 340 339 338 337 337 336 337 338 337 337 339 339 339 339 339 338 338 342 343 343 343 343 343 343 343 342 342 341 340 340 338 337 336 335 331 330 331 331 332 333 333 339 341 342 341 341 340 339 339 338 337 336
340 340 340 339 339 341 342 342 340 341 341 339 340 342 344 346 346 346 346 343 342 342 341 340 337 340 342 341 341 341 341 341 341 341 341 341 340 340 339 339 338 338 338 338 338 340 340 339 339 339 341 342 343 343 343 343 342 341 341 340 340 339 338 337 336 334 332 330 330 330 330 331 332 333 339 339 339 338 337 337 338 337 336 336 335
340 340 339 338 338 340 342 342 342 342 341 339 340 341 346 346 345 345 345 343 342 342 341 340 337 338 338 339 339 338 339 340 340 339 339 341 342 342 342 342 340 339 339 339 339 339 340 339 340 339 341 342 342 341 341 342 341 341 340 340 339 338 336 335 333 332 328 328 328 330 333 336 329 332 336 338 337 336 336 336 338 335 334 333 334
340 340 339 338 338 341 343 343 344 343 341 340 340 341 346 346 345 346 345 343 343 342 341 338 336 336 337 338 337 338 341 341 339 338 338 339 339 339 340 340 341 340 341 340 340 340 340 340 340 339 340 341 342 340 340 341 341 340 340 339 338 337 335 333 330 327 327 326 326 326 330 335 326 328 336 336 336 335 336 336 336 334 334 334 333
339 340 339 338 342 340 343 343 343 342 342 342 340 340 346 346 346 345 345 343 342 341 340 338 338 337 337 341 340 340 340 339 338 338 338 338 338 338 338 338 338 338 339 338 338 338 339 339 339 339 340 341 341 340 340 340 340 339 339 338 337 336 334 332 327 325 325 325 326 326 324 324 325 331 336 336 335 334 334 334 332 333 333 333 331
339 339 339 338 337 340 341 343 342 342 342 342 342 340 344 345 345 344 344 343 342 340 339 338 337 336 336 336 337 340 338 338 338 337 338 338 338 338 337 337 337 337 337 338 338 338 339 339 339 338 339 340 339 339 339 339 339 339 338 337 336 334 332 329 325 324 323 323 324 324 323 322 324 334 333 333 333 334 333 333 332 331 331 331 330
339 339 338 339 338 342 339 340 341 342 343 343 342 341 341 344 344 344 343 343 341 340 339 338 338 337 336 336 336 335 336 335 336 336 337 337 337 337 337 337 337 337 336 336 337 337 337 338 338 338 339 339 338 338 338 338 337 338 338 337 335 333 330 328 327 322 323 323 323 322 320 324 326 334 332 331 332 331 331 330 329 330 329 329 328
338 338 338 339 339 338 340 338 340 340 342 343 343 343 341 341 341 341 341 340 340 339 339 338 337 337 336 336 336 336 336 337 337 337 337 337 337 337 337 336 337 337 337 337 336 337 337 337 338 338 338 338 338 337 337 337 336 336 336 334 333 331 328 324 323 321 322 323 321 321 320 322 332 332 332 331 330 329 330 329 328 328 327 326 326
338 338 338 338 337 337 337 340 337 337 339 341 342 342 343 342 342 340 340 339 339 339 337 337 337 337 336 335 335 338 340 342 339 338 337 337 337 337 337 337 336 336 336 336 336 336 336 337 337 337 337 338 337 337 337 335 335 335 334 333 331 328 326 323 321 319 319 320 320 320 319 323 332 331 331 331 330 328 327 328 329 327 326 326 326
339 339 340 340 337 336 337 337 335 333 334 336 338 339 341 343 343 342 342 341 340 338 337 336 337 339 341 343 343 340 340 341 341 339 339 337 337 337 337 337 336 337 336 336 336 335 336 337 337 336 336 337 337 336 336 336 335 335 333 331 330 327 324 322 320 318 319 320 320 320 320 322 330 330 330 328 328 327 327 327 326 325 326 326 325
339 340 339 340 339 338 337 336 335 334 333 333 332 337 339 341 342 341 341 341 341 340 338 338 339 339 339 339 339 340 340 340 341 341 340 339 338 337 337 336 336 335 335 335 335 335 336 336 336 336 336 336 336 336 335 335 334 334 332 330 328 326 323 322 318 318 318 323 318 321 320 331 330 330 329 328 328 327 326 326 326 326 324 323 324
339 339 340 340 339 340 339 336 336 334 333 332 331 334 334 338 339 339 340 340 340 339 339 337 337 337 336 334 333 332 332 334 336 337 337 336 335 334 337 336 335 335 335 334 334 335 335 335 335 335 335 335 335 335 335 335 334 333 331 328 323 322 320 319 316 316 317 316 316 316 318 332 329 328 328 329 328 327 326 325 324 324 323 323 323
337 338 339 339 339 339 338 337 336 334 332 332 332 331 332 332 335 337 337 338 337 336 335 333 331 330 330 329 327 326 325 326 327 330 332 336 333 330 333 335 334 334 333 334 333 334 334 334 335 335 334 334 334 333 333 333 333 331 329 326 322 320 316 314 314 315 315 317 318 315 326 334 328 328 327 327 326 326 326 325 324 324 322 321 322
336 337 338 338 339 339 339 337 336 334 333 333 332 332 332 330 331 331 332 334 333 332 332 326 323 323 323 322 323 323 322 324 325 326 324 328 325 327 332 335 334 334 333 332 332 333 333 333 334 334 334 333 329 328 328 331 331 331 327 322 318 318 315 314 314 315 315 317 319 316 330 331 328 327 327 327 326 325 324 324 323 322 322 321 321
334 335 336 337 337 338 338 339 337 334 334 334 335 334 332 332 333 332 329 329 327 325 324 324 328 321 321 322 322 323 322 321 323 329 324 325 325 325 329 334 334 333 334 332 332 332 332 333 333 334 333 330 323 313 313 318 323 325 322 318 316 315 315 315 314 314 315 315 316 320 330 328 326 327 326 326 327 326 325 323 323 322 321 321 322
332 334 335 336 336 337 338 338 337 334 334 334 336 334 333 333 333 332 328 325 327 325 324 325 322 322 321 322 321 322 322 322 323 325 325 323 325 324 329 331 332 331 333 333 332 331 331 332 332 333 332 327 314 312 313 312 313 317 316 316 315 315 316 316 314 314 314 314 314 325 327 330 327 328 328 325 326 324 323 323 322 321 321 322 322
331 333 334 336 336 336 336 337 337 336 334 334 336 334 334 334 333 332 328 326 325 325 324 324 323 322 323 322 321 320 320 322 326 327 327 322 322 323 326 327 328 327 329 329 330 331 332 332 331 331 326 319 315 314 314 315 316 314 314 314 314 314 315 315 315 314 313 316 314 325 328 330 327 326 326 325 325 324 324 323 322 322 321 320 320
330 330 331 334 335 336 336 335 336 336 334 334 335 335 335 334 333 332 329 328 326 326 325 324 324 323 323 323 323 320 320 320 322 322 321 322 320 320 322 322 320 319 322 319 319 320 321 319 317 317 314 314 315 317 315 317 317 315 313 314 316 314 314 314 315 314 314 314 314 322 325 329 332 328 327 327 325 325 323 323 322 321 321 321 321
327 328 329 332 334 336 336 336 336 336 335 335 335 334 335 334 334 333 331 329 328 327 326 325 325 324 323 324 323 322 321 322 321 321 321 321 321 320 321 319 318 319 318 320 317 316 315 315 315 313 314 313 314 315 315 315 318 315 313 312 313 312 313 314 315 315 316 315 314 321 324 327 330 328 328 326 325 326 324 323 322 323 321 321 321
325 328 328 329 333 336 336 336 335 336 335 336 335 333 335 335 335 334 333 331 330 328 327 326 326 325 324 323 322 321 320 321 321 320 320 320 321 320 319 319 320 319 319 319 317 317 315 315 313 315 313 312 312 312 313 313 313 313 311 311 311 312 311 315 315 315 315 314 315 319 323 328 330 330 328 328 327 326 325 324 324 324 324 322 321
325 326 326 327 328 334 336 337 336 336 336 336 335 333 334 334 334 332 332 330 329 328 328 327 327 326 324 324 322 323 322 321 321 321 321 320 320 320 320 318 320 318 319 319 318 316 315 314 313 312 313 312 312 312 312 313 312 312 313 311 311 312 312 312 316 315 315 315 316 317 321 324 325 329 332 331 329 327 326 326 326 326 326 324 323
325 325 325 326 326 331 334 336 336 336 336 336 335 334 333 333 333 332 331 328 330 328 328 328 327 326 325 324 321 321 322 322 321 322 320 320 320 320 319 320 319 320 319 318 319 318 316 315 316 315 312 313 311 313 312 312 310 310 312 312 311 310 310 310 313 314 314 314 316 316 319 322 326 329 330 331 331 331 329 328 328 327 327 327 326
326 326 325 326 326 328 332 335 336 337 337 336 335 334 332 332 333 332 331 328 330 329 327 327 327 326 325 325 322 322 322 322 321 320 320 320 320 320 320 319 319 320 319 319 318 318 317 314 314 313 315 313 312 314 312 312 314 312 311 311 311 313 313 311 310 313 317 316 316 316 316 320 324 328 330 330 331 331 331 330 331 330 330 328 327
325 325 325 326 326 326 330 334 335 335 337 336 334 334 333 332 332 333 332 330 330 330 327 327 326 326 326 325 324 323 321 321 321 321 319 320 320 320 320 320 319 319 319 320 318 319 318 317 316 315 315 314 314 313 312 314 313 314 313 312 314 311 313 314 311 311 313 316 316 315 316 317 320 324 329 330 330 331 331 331 331 330 330 330 330
324 325 326 326 326 326 328 331 334 334 334 335 332 333 333 333 332 333 332 331 330 330 328 327 325 326 326 325 324 323 322 321 320 320 320 318 318 320 321 319 320 319 319 320 317 318 318 317 315 315 314 314 315 312 310 312 313 314 311 314 315 314 313 313 314 314 313 314 315 316 316 317 316 320 323 328 330 330 330 330 331 330 331 330 331
325 326 326 325 326 326 327 329 332 332 333 334 332 333 333 333 331 332 332 332 331 330 329 327 326 326 326 325 324 323 322 322 320 321 320 319 318 318 318 319 320 319 318 318 317 316 314 313 312 311 312 311 311 314 310 309 312 313 311 313 313 314 314 314 314 314 313 313 314 315 315 316 316 316 317 321 326 329 330 330 330 330 331 331 331
325 325 326 326 327 328 328 328 330 331 332 333 331 331 332 332 331 332 331 331 331 330 329 328 327 326 326 325 325 324 323 322 322 319 320 320 320 319 319 319 320 318 318 317 316 313 315 311 314 311 314 315 315 314 309 311 309 308 309 310 309 312 312 314 314 314 313 313 313 314 314 314 315 315 316 317 319 322 327 330 330 330 330 330 330
324 325 325 326 326 328 328 329 327 330 330 332 330 331 331 331 330 330 331 330 330 330 329 328 327 327 326 325 325 324 323 323 322 321 319 320 320 319 321 322 323 320 318 316 317 315 316 316 313 315 315 314 312 309 308 311 309 311 311 310 311 311 310 312 314 314 314 313 312 312 313 313 313 313 314 314 312 315 320 325 329 330 330 330 330
325 326 326 326 326 327 327 328 327 329 329 330 330 330 330 331 330 327 330 329 329 329 328 328 328 327 327 326 325 324 324 324 323 322 320 319 319 319 319 322 323 322 321 317 317 318 317 316 315 316 315 314 311 312 309 311 311 311 311 311 311 311 311 311 312 313 314 313 312 311 311 310 311 312 312 313 314 313 315 318 323 326 328 330 330
326 326 326 326 326 327 326 328 327 328 329 329 329 328 329 330 330 330 331 330 330 329 328 327 327 327 327 326 325 325 324 325 326 326 324 321 319 321 320 323 323 322 322 321 319 319 318 317 314 312 314 316 314 313 313 312 312 312 311 310 311 310 310 311 312 312 313 311 311 310 310 310 310 309 309 311 312 313 312 314 318 320 321 325 328
326 325 327 327 326 327 327 327 328 329 329 329 329 329 329 329 329 330 329 330 330 330 330 329 328 328 327 327 326 325 326 327 328 328 327 326 323 321 322 324 323 323 322 321 320 319 318 317 316 313 314 314 313 313 313 313 312 312 310 309 310 307 310 311 311 308 309 310 310 310 311 310 310 310 310 310 309 310 310 312 314 314 313 316 321
326 325 326 327 327 327 327 326 327 328 328 328 328 328 328 328 326 328 328 329 329 329 330 329 329 328 327 328 327 328 328 329 329 328 327 326 326 324 322 320 322 322 322 321 319 317 316 315 315 315 311 313 314 314 313 312 311 309 309 310 310 310 310 308 306 306 307 308 308 309 308 308 308 308 309 309 309 309 309 309 309 310 311 313 318
326 326 323 325 326 326 326 327 327 329 328 328 327 327 326 326 326 321 324 326 328 327 328 329 329 328 326 326 327 328 329 330 330 329 328 327 326 326 325 324 323 321 319 317 315 316 318 315 313 313 312 309 310 313 312 311 311 310 309 309 308 309 308 308 307 307 307 307 307 306 306 306 305 306 307 308 308 307 307 308 308 310 310 311 314
325 325 323 323 325 326 325 325 327 328 328 327 327 327 326 324 322 325 326 326 327 326 326 326 327 328 327 326 326 327 327 328 329 329 329 326 327 325 325 325 323 321 319 317 318 319 318 316 313 309 312 313 314 312 310 310 311 311 310 308 310 310 308 307 308 307 307 308 306 305 304 304 304 304 306 306 305 304 305 306 307 308 308 309 310
321 323 324 324 325 325 325 326 326 327 328 329 328 327 328 328 327 327 325 324 324 324 326 325 326 326 326 326 326 326 327 327 326 329 329 329 327 326 325 325 324 323 322 320 320 316 317 315 312 311 312 315 314 312 312 311 307 308 306 306 308 309 309 307 306 306 305 305 305 304 304 303 304 304 304 303 302 303 303 304 305 305 306 307 308
322 323 325 324 324 324 325 325 325 327 327 328 328 327 328 327 327 323 325 318 317 324 324 324 324 325 325 325 325 326 326 326 327 325 327 327 328 327 326 326 325 323 322 321 318 318 319 318 315 316 316 311 312 312 312 314 311 304 305 305 304 303 305 303 299 300 303 304 303 301 302 301 303 303 303 301 301 302 302 303 303 303 304 305 305
320 321 322 323 324 323 324 325 325 326 327 327 326 328 328 325 322 320 320 323 319 317 318 317 321 320 322 322 323 325 326 328 329 328 328 328 328 327 327 325 324 323 324 323 321 319 317 317 316 315 316 313 310 312 311 312 312 308 307 304 302 300 302 301 295 302 303 304 300 302 301 303 302 302 301 300 301 301 302 302 301 302 303 303 303
319 320 321 323 324 324 324 325 325 325 326 325 325 326 322 319 318 315 315 316 315 314 315 316 318 319 320 317 320 320 324 325 327 327 324 326 325 325 325 325 325 324 323 323 321 321 321 319 317 315 314 315 314 311 308 310 311 313 311 304 302 298 300 302 304 309 301 301 301 302 302 302 302 302 301 301 301 301 301 301 301 301 301 302 302
318 319 321 322 323 324 324 324 324 325 325 324 325 324 323 324 319 319 319 316 318 316 318 320 316 316 319 314 314 317 321 322 323 324 325 324 326 327 326 325 323 322 321 322 322 320 319 318 318 318 316 316 317 315 312 308 310 310 312 312 312 308 307 304 307 304 305 305 307 303 302 301 301 301 301 300 300 301 301 301 301 301 301 301 302
317 318 318 319 320 321 321 322 324 324 325 323 323 322 322 323 322 322 322 320 319 317 312 312 316 312 315 314 316 313 317 321 319 324 327 327 327 327 325 323 323 323 320 320 321 321 321 319 318 316 317 315 314 313 313 311 306 307 307 308 307 307 308 306 303 302 302 307 305 303 305 303 302 301 300 300 301 300 301 301 301 302 302 302 302
317 314 314 315 317 318 319 320 321 321 322 321 321 323 323 322 321 321 320 319 318 315 308 309 309 311 311 314 314 311 312 314 315 316 318 320 322 323 322 322 323 324 320 321 320 320 319 318 317 317 316 315 314 314 313 312 310 307 305 306 306 307 306 306 306 305 303 298 303 310 309 307 304 303 301 302 302 302 303 303 303 302 302 302 302
309 310 312 313 314 314 315 315 318 319 319 319 320 321 322 322 321 320 317 313 313 310 306 306 309 310 310 307 309 309 310 310 313 315 317 318 318 320 320 320 320 319 316 318 318 318 318 317 316 315 314 314 313 313 312 311 309 309 307 303 304 305 306 304 302 302 300 300 302 302 305 308 307 305 305 304 304 304 304 305 304 303 303 303 302
300 301 302 304 307 310 312 314 317 318 318 318 319 320 320 318 319 317 317 311 307 305 306 308 306 306 308 307 308 309 308 310 311 313 315 317 318 318 318 318 318 317 314 317 317 317 317 316 317 316 314 314 313 313 312 312 311 310 310 307 304 302 301 300 300 301 301 302 299 300 302 301 301 305 307 307 306 306 306 306 304 303 303 303 303
295 296 298 301 305 309 312 314 316 315 315 317 317 318 317 317 319 316 315 312 308 309 307 304 304 305 308 305 306 307 305 308 308 309 311 314 315 314 316 316 315 312 313 314 314 314 314 315 315 314 314 313 312 311 310 310 310 309 309 309 307 307 305 302 304 302 300 297 298 300 303 303 303 303 306 307 307 308 307 308 307 306 305 305 303
Wind_Speed
5 6 4 6 8 10 11 11 12 12 12 11 11 13 13 15 14 14 14 14 13 15 15 15 15 16 17 18 17 16 16 17 17 17 16 17 18 18 18 18 17 17 17 17 17 17 16 16 17 18 19 20 20 20 20 19 19 18 19 19 19 20 19 19 18 18 18 19 18 17 17 16 18 18 18 19 18 17 14 16 14 11 9 13 19
8 5 4 4 9 10 11 12 12 12 11 12 11 12 13 11 13 14 14 14 14 14 15 14 14 14 15 17 17 17 15 16 17 17 17 17 17 17 17 17 17 18 17 17 17 16 16 16 17 17 18 18 18 19 18 18 18 17 17 18 18 18 18 18 18 18 18 17 18 18 18 17 18 18 18 18 18 17 14 15 16 10 7 17 18
7 5 3 5 9 10 11 11 12 12 11 12 12 12 12 11 13 13 14 15 14 14 14 14 14 14 16 16 16 16 16 16 14 17 17 16 17 17 17 17 17 17 17 17 17 17 17 16 16 17 17 17 18 18 19 18 18 18 17 17 17 17 17 16 17 17 17 17 16 16 17 19 18 18 19 19 18 17 15 16 15 14 10 18 16
8 4 4 7 9 9 10 11 11 11 11 10 13 12 12 11 13 14 14 14 15 14 14 14 14 14 14 16 17 16 16 16 17 16 15 17 17 16 16 16 17 18 17 18 17 17 17 17 17 17 17 17 18 18 19 18 18 18 17 17 17 17 16 16 16 16 16 15 15 13 7 7 10 18 18 18 18 18 15 16 16 16 16 16 18
7 5 5 5 5 8 10 11 11 11 10 10 11 12 12 11 12 13 14 14 14 14 14 13 13 14 15 17 17 17 16 16 17 16 15 16 16 15 15 15 16 17 17 17 17 16 16 16 16 16 17 18 17 18 18 17 17 17 17 17 17 16 16 16 16 15 14 14 12 8 5 5 6 15 17 18 17 15 14 15 16 16 15 16 16
7 5 5 5 5 6 9 10 11 11 10 9 9 12 12 13 12 14 14 14 14 14 13 13 14 15 17 16 16 16 16 17 16 16 15 14 15 15 15 15 15 16 16 17 16 16 16 16 16 16 17 17 17 17 17 17 17 16 17 17 17 16 16 16 15 14 13 12 10 6 5 5 4 7 16 16 16 14 16 16 16 15 16 17 15
9 5 6 5 5 5 9 11 12 11 10 9 9 14 14 13 12 12 13 14 14 13 12 12 13 17 16 16 15 15 16 16 15 16 14 14 16 15 15 15 15 15 15 16 16 16 16 16 16 16 17 17 18 17 17 17 17 16 17 16 16 16 16 15 14 13 11 7 5 5 6 5 5 5 15 15 15 15 16 16 16 16 16 15 15
6 6 5 5 4 6 9 11 11 11 10 9 7 12 14 12 12 13 12 14 14 13 13 13 14 15 15 14 14 15 15 15 15 16 15 15 15 15 14 14 15 14 14 16 16 16 16 15 15 15 16 17 18 17 17 17 17 16 17 16 16 16 15 15 13 12 11 6 5 6 6 5 5 4 13 15 15 15 15 15 15 15 14 14 11
7 6 6 5 5 9 10 10 12 12 10 8 8 12 12 12 12 12 11 13 13 12 13 13 12 15 15 14 14 14 14 15 16 15 14 13 13 14 15 15 15 14 15 15 16 16 16 15 15 15 16 17 17 16 17 17 16 16 16 16 15 15 14 13 12 10 7 6 6 6 6 5 4 5 12 15 15 15 13 10 11 14 13 10 12
7 6 6 5 5 10 10 11 12 12 11 10 7 10 12 12 12 12 10 12 13 12 13 13 11 11 14 14 15 14 14 15 15 14 14 15 16 15 15 14 14 15 14 14 15 15 15 14 14 14 15 16 16 16 16 16 16 15 15 15 15 14 13 12 10 7 6 5 6 6 5 6 4 4 10 13 13 13 10 7 5 7 8 11 12
8 6 5 6 7 10 11 12 11 10 11 10 8 11 13 13 12 12 10 11 14 13 13 12 12 12 12 13 13 14 15 15 14 12 14 14 14 14 14 14 14 13 14 14 14 15 14 14 13 14 14 15 15 15 15 15 15 15 15 14 14 13 13 11 8 6 5 6 6 5 5 8 3 2 9 11 11 10 6 6 8 9 11 12 12
8 6 5 5 9 11 12 11 11 12 11 10 9 10 13 13 11 12 11 12 13 13 13 12 11 13 13 15 15 15 15 14 13 12 12 14 13 13 13 13 13 13 13 13 13 13 13 13 13 12 12 13 13 14 15 14 14 14 14 14 13 12 11 10 6 6 5 6 5 5 5 5 4 6 12 11 10 10 9 10 10 11 11 11 11
8 7 6 5 5 9 11 11 11 11 11 11 9 10 12 12 13 13 11 14 14 13 12 11 11 10 11 13 13 14 13 12 12 13 13 13 12 12 13 13 13 13 12 13 13 13 13 12 12 12 11 12 12 13 14 14 13 12 12 13 13 12 10 9 5 6 5 4 4 4 4 4 4 9 10 9 9 9 10 11 10 10 10 10 9
9 7 6 6 4 10 11 10 10 10 11 10 10 8 9 11 13 13 13 13 13 12 11 11 11 11 11 11 10 10 12 12 13 13 13 12 12 12 12 12 12 13 12 12 12 12 12 12 11 11 10 11 11 12 12 13 12 11 10 11 11 10 9 7 6 4 5 4 4 4 4 3 3 10 10 9 9 9 8 9 10 9 9 9 9
9 8 6 5 5 5 11 10 9 9 10 10 9 8 9 10 10 10 11 11 11 11 10 10 10 11 10 10 12 12 10 12 12 12 13 13 12 12 11 11 11 11 12 12 11 11 12 12 11 10 10 10 10 10 11 12 12 11 11 11 10 7 8 5 4 4 4 4 3 4 4 3 8 10 10 10 9 9 9 9 8 9 9 8 8
11 8 6 5 4 4 5 8 9 9 9 9 9 8 9 9 9 10 11 11 11 10 9 9 10 10 10 8 10 12 11 10 10 13 12 11 11 12 11 11 11 11 11 11 10 11 11 11 10 9 8 9 9 9 10 11 10 11 11 11 8 7 8 6 4 4 4 4 3 4 4 3 9 9 9 10 9 9 8 8 8 8 8 8 8
10 10 8 7 5 4 5 5 6 9 9 8 8 8 8 8 8 9 8 10 10 10 10 9 10 10 10 10 10 10 9 10 11 10 10 11 12 11 11 11 11 11 11 11 11 11 11 10 10 8 8 8 8 8 8 9 9 9 9 9 8 6 7 6 5 3 4 3 3 4 3 3 6 9 9 9 9 8 8 8 7 7 7 7 7
9 10 9 9 6 5 5 5 5 5 4 6 8 8 8 9 9 9 9 9 9 9 9 9 9 9 8 7 8 8 9 8 8 9 10 11 9 9 10 10 10 10 11 11 11 10 10 9 8 8 7 6 7 7 8 8 8 8 7 9 7 6 6 6 4 3 3 3 3 2 2 5 8 8 8 8 8 8 8 8 7 7 6 6 7
8 8 9 10 8 6 6 5 5 4 5 4 4 6 9 8 9 9 9 9 9 9 8 8 9 8 7 8 9 9 8 9 9 10 10 10 10 8 8 8 9 9 9 10 10 10 9 8 8 7 6 5 5 6 7 7 6 6 7 8 8 6 5 4 3 3 2 2 2 2 2 3 7 7 7 7 7 6 7 7 6 5 5 6 5
8 8 8 8 8 7 5 6 5 5 4 4 4 4 7 8 8 9 9 9 9 9 9 9 9 9 8 8 8 7 7 6 9 7 9 10 9 6 7 6 8 8 8 9 9 8 8 7 7 5 5 4 4 4 4 5 5 5 6 7 7 5 2 2 3 3 2 2 1 1 3 1 6 5 5 6 5 5 5 6 6 5 5 4 3
6 8 8 7 8 9 9 6 6 6 5 5 4 4 6 8 7 9 10 9 9 9 9 9 8 8 8 8 7 5 4 4 5 4 7 6 8 7 6 6 7 7 7 7 7 8 8 7 5 4 3 3 4 4 4 3 2 4 5 6 6 4 1 2 2 2 2 1 0 1 4 6 3 2 5 5 5 5 3 3 4 4 3 1 1
7 7 7 8 7 8 10 7 6 6 6 5 4 5 5 6 6 5 5 7 7 7 6 5 6 4 7 6 4 4 5 3 4 5 4 4 6 7 6 6 6 5 5 6 7 6 6 7 4 3 2 2 4 2 3 5 6 4 5 6 4 2 1 1 3 2 2 1 0 2 1 3 3 4 3 3 5 6 4 2 1 2 2 3 6
8 7 7 8 8 7 7 9 7 6 6 5 5 5 6 5 6 5 4 5 6 5 4 4 4 4 4 4 5 4 4 4 4 5 4 5 5 7 7 7 6 5 4 5 4 5 5 5 4 3 1 2 1 3 3 3 4 6 5 4 3 2 1 1 2 3 3 2 1 3 1 2 1 5 7 1 6 3 3 1 3 1 2 4 4
10 9 8 7 8 7 8 8 8 8 7 5 5 5 5 5 4 5 4 5 5 5 4 4 5 5 5 4 4 4 4 5 5 8 6 4 5 7 8 7 6 5 5 4 5 4 4 2 2 1 2 1 2 3 3 3 4 3 4 4 4 2 1 2 3 3 2 2 2 3 2 5 2 2 2 1 3 4 2 4 2 3 2 3 3
9 8 7 8 9 9 8 8 8 8 7 6 6 6 5 5 5 5 5 5 5 5 5 5 5 5 5 5 4 3 3 3 4 4 5 5 4 4 4 4 3 3 4 3 2 2 2 1 0 1 1 2 2 4 3 4 4 3 2 3 3 3 1 2 4 3 3 3 2 3 4 5 5 5 4 6 1 5 3 5 2 2 2 4 3
5 7 9 8 9 9 9 8 8 8 8 7 7 7 7 6 6 6 6 5 5 5 5 5 5 5 5 5 5 3 4 4 3 4 4 5 5 5 4 4 3 4 2 3 2 2 2 2 2 3 3 2 3 4 4 4 4 4 3 3 3 2 2 3 3 4 4 4 3 6 5 5 6 5 6 5 1 8 4 5 4 6 4 5 4
7 8 8 7 9 8 9 9 9 8 9 7 6 6 7 6 6 6 6 6 5 5 5 5 5 5 5 5 6 5 5 5 4 4 5 4 5 5 5 4 4 4 4 4 4 4 3 4 3 4 3 2 3 3 4 3 3 3 2 2 3 2 2 4 3 4 4 4 4 8 6 6 7 8 8 7 7 6 7 6 8 8 9 8 7
7 8 8 7 9 10 10 9 9 9 8 8 7 7 7 7 7 6 6 6 6 6 6 6 6 6 5 5 6 6 6 5 5 5 5 4 5 5 5 4 5 5 4 4 4 3 3 3 3 3 3 3 3 3 3 3 3 2 2 3 2 2 3 4 3 4 4 4 5 7 8 8 8 8 10 9 10 8 8 9 11 10 11 8 9
8 7 7 7 8 9 9 10 10 11 9 9 8 7 7 7 6 6 7 6 6 6 6 5 6 5 5 5 5 6 5 6 6 6 5 6 5 5 5 5 4 5 4 5 4 4 4 4 4 4 3 3 3 3 3 3 2 2 2 3 3 3 3 3 4 4 4 5 5 6 9 9 8 9 10 11 12 13 11 11 10 12 12 11 11
10 9 8 8 7 8 10 11 10 11 10 9 8 7 7 7 7 7 7 6 6 6 5 5 6 5 5 5 6 7 7 7 6 5 6 6 5 5 5 5 5 5 4 5 5 5 5 4 4 4 4 4 3 5 2 3 4 3 2 3 3 4 4 3 3 4 5 5 5 6 9 10 10 9 10 11 14 14 14 12 13 13 14 14 14
8 9 8 8 7 7 9 10 9 9 9 10 8 8 8 8 8 7 7 7 7 6 6 6 6 6 6 6 5 6 7 6 6 6 6 6 6 5 6 5 5 5 5 5 5 5 5 5 6 6 5 4 6 4 3 4 4 5 4 3 5 3 5 4 3 3 4 5 6 5 7 11 12 12 11 12 14 14 16 15 14 14 14 15 16
10 10 8 7 7 8 9 9 9 9 10 10 9 8 8 8 8 7 7 7 7 6 7 6 6 6 6 5 5 5 6 6 6 5 6 5 5 6 6 5 6 5 5 6 5 5 6 6 4 4 4 3 4 3 2 3 5 5 4 5 5 5 6 5 5 4 4 4 5 6 6 7 11 13 12 13 14 15 16 18 17 16 16 17 18
8 10 10 8 10 9 9 9 8 9 10 10 9 8 8 7 8 8 7 7 7 7 7 7 7 7 6 6 6 5 5 6 6 6 5 5 4 5 5 6 6 6 6 5 5 4 4 3 3 1 2 2 3 5 2 2 4 5 4 5 4 5 5 6 6 5 5 5 5 5 5 6 6 10 13 13 14 15 17 18 19 19 19 19 19
9 8 10 12 10 7 7 7 8 10 11 9 8 8 8 7 7 7 7 7 7 7 7 6 7 7 7 7 6 6 5 5 6 5 5 5 4 4 4 5 6 5 5 5 6 4 4 3 5 2 5 5 5 5 3 4 4 3 4 5 4 6 5 6 6 6 6 6 6 5 6 5 6 6 7 12 14 14 14 17 18 20 21 21 21
8 8 12 14 11 10 8 7 9 9 9 9 9 9 7 7 7 6 7 7 7 7 6 6 6 6 7 7 7 6 6 5 5 6 5 5 5 5 5 5 5 5 4 4 4 3 4 5 3 4 3 4 4 3 3 4 4 6 5 3 5 6 4 6 6 6 6 6 6 5 6 6 6 6 6 6 9 13 15 15 17 19 21 22 22
12 12 11 10 12 11 10 9 9 11 10 10 8 8 8 8 7 6 6 6 6 6 6 6 6 6 6 6 6 6 6 5 5 5 6 5 5 5 5 4 3 3 5 5 3 4 4 3 3 4 4 5 4 5 3 5 5 6 6 6 6 5 6 6 6 6 7 6 6 6 6 6 6 6 6 6 6 7 12 14 15 17 18 21 23
11 11 12 10 11 12 12 12 11 11 10 9 8 6 7 7 7 7 7 7 7 6 5 5 5 5 5 6 6 6 6 5 5 5 5 4 4 4 4 5 4 4 4 5 6 6 6 6 5 5 4 5 3 4 5 5 6 6 6 6 6 6 6 6 7 7 6 6 7 6 6 6 6 6 6 6 6 6 8 12 13 15 17 18 21
9 11 12 13 13 11 11 12 10 11 10 10 9 8 7 7 7 7 6 7 7 6 6 5 6 6 5 6 5 6 6 6 6 5 5 6 4 4 3 3 4 4 5 3 5 4 4 4 5 4 5 4 4 5 6 6 5 6 6 7 7 6 7 7 6 6 6 7 7 7 7 6 6 5 6 6 6 6 6 8 12 13 14 15 17
9 10 10 11 10 10 10 11 11 10 9 9 8 7 7 6 5 6 6 7 6 6 6 6 6 6 6 6 6 6 6 6 6 6 5 5 5 5 3 3 3 4 5 5 3 2 2 4 6 6 3 5 5 5 6 5 5 6 7 9 6 6 6 5 4 5 6 6 7 8 5 6 5 5 6 6 6 6 6 6 6 6 8 12 13
10 9 9 9 10 9 9 9 10 10 8 7 7 7 6 7 7 4 5 7 7 6 6 7 6 6 6 6 6 6 6 7 7 6 7 6 5 6 7 5 4 4 4 4 5 6 9 6 4 5 5 3 3 5 4 4 5 5 8 8 6 6 6 6 5 6 6 6 8 6 6 5 4 6 7 7 6 6 7 8 7 8 7 10 14
10 10 9 10 11 12 11 13 11 9 9 9 8 9 8 7 6 9 9 7 7 6 6 5 6 6 6 6 6 6 6 6 6 6 6 5 5 4 4 5 5 4 5 5 6 6 5 4 4 3 6 5 5 5 4 3 4 6 6 6 8 6 7 6 8 7 8 7 5 6 6 6 6 7 8 6 6 6 7 8 8 7 8 8 10
10 10 12 13 11 11 13 12 9 10 11 12 11 10 9 10 10 10 8 7 7 7 8 6 7 6 7 7 6 6 6 6 6 6 6 6 6 6 6 6 5 4 6 6 6 4 4 3 3 3 4 6 5 4 4 4 2 5 4 6 5 6 7 5 7 7 5 6 6 6 6 6 7 7 7 6 6 7 7 8 7 7 8 8 8
12 13 13 12 11 10 11 11 11 11 11 11 11 11 10 9 9 6 8 5 4 5 6 6 6 7 7 7 7 6 6 6 6 6 6 5 6 7 7 7 6 6 5 6 6 6 6 6 5 6 6 3 4 1 3 7 5 1 0 2 4 6 3 3 3 4 6 7 5 4 5 5 8 7 6 6 6 7 6 7 7 7 8 8 8
10 10 10 12 11 10 10 11 11 11 11 11 12 11 10 7 5 5 5 6 5 4 4 4 5 5 6 6 6 6 6 7 7 7 7 7 7 7 6 5 6 6 7 7 6 6 4 4 5 6 5 3 2 5 4 6 5 2 3 2 1 1 8 3 2 6 6 5 2 6 3 6 6 6 5 7 8 6 7 6 7 8 8 8 7
12 12 12 12 10 13 13 13 11 12 11 11 12 9 6 5 4 2 2 2 1 3 5 6 6 6 6 6 6 5 6 6 6 6 6 6 5 5 5 6 7 7 5 5 5 7 7 7 6 4 5 6 6 3 2 5 6 6 4 1 3 1 5 5 6 8 2 2 4 5 5 5 6 7 6 8 6 7 7 7 8 7 8 8 8
12 12 12 12 11 11 11 10 9 9 11 11 11 9 10 10 8 8 8 6 8 6 10 11 7 7 8 4 4 4 5 5 5 6 6 5 5 6 5 5 3 3 4 5 6 5 5 5 7 8 8 8 7 5 4 1 4 4 5 5 4 4 6 3 3 7 1 5 5 3 4 6 6 6 6 7 8 8 7 8 7 8 8 8 8
12 10 9 9 10 9 9 10 10 10 10 8 9 9 8 9 12 13 11 11 10 7 2 2 5 4 4 5 5 4 4 6 5 5 5 5 5 5 4 4 4 4 3 3 3 5 5 4 0 1 4 3 4 5 6 3 0 3 4 7 6 4 1 3 4 3 10 6 3 3 6 5 5 5 7 8 8 7 7 7 9 9 8 8 7
12 8 8 7 9 9 9 10 8 8 7 7 9 11 11 10 10 10 10 9 9 7 4 3 2 5 5 5 4 3 2 3 4 3 2 2 1 1 1 1 1 0 1 1 2 1 1 0 2 2 2 3 4 6 6 5 5 3 1 3 4 4 3 2 5 7 8 8 12 9 3 3 3 5 6 7 7 8 9 8 8 8 8 8 7
6 8 9 9 8 7 6 6 7 7 7 9 10 10 10 11 10 8 8 5 4 4 3 3 4 5 5 3 4 3 3 3 4 5 5 4 4 4 4 4 5 3 3 5 3 3 3 2 1 1 1 2 3 3 2 2 1 2 1 1 2 5 4 3 3 2 4 7 9 5 13 10 7 5 6 5 7 8 8 10 8 8 8 7 7
5 4 4 4 5 6 7 8 9 8 8 9 10 10 9 8 9 9 9 5 4 3 4 5 4 4 5 6 6 5 5 5 4 4 5 5 4 4 4 5 5 4 4 4 4 4 3 2 4 6 3 2 1 3 3 2 1 2 2 1 1 2 2 2 2 1 4 6 10 9 8 10 13 11 10 10 7 8 9 9 8 7 8 7 7
4 4 5 5 6 7 8 10 10 8 7 9 9 10 8 8 9 8 9 8 6 7 6 4 4 4 6 5 6 6 4 5 5 4 5 5 4 4 4 4 4 4 4 3 2 2 3 5 4 3 3 3 3 2 2 2 1 2 2 0 2 3 3 2 5 3 3 3 6 8 8 9 11 14 7 5 9 10 11 12 10 10 8 8 7
Wind_Direction
167 150 171 146 131 122 119 119 118 113 113 112 110 105 105 106 96 89 87 83 86 88 88 85 85 86 86 83 82 82 82 81 80 81 79 78 78 77 75 75 78 77 77 76 75 77 75 75 75 73 72 69 68 68 67 69 71 69 71 73 72 71 69 66 63 61 62 64 64 69 75 80 85 84 82 80 76 72 70 69 67 68 69 71 72
156 157 160 142 128 122 120 122 120 115 112 110 103 105 101 100 104 100 96 91 88 84 83 86 87 89 92 88 86 87 86 83 83 85 82 81 82 80 78 79 80 79 77 77 77 78 80 80 80 79 77 74 71 70 70 71 73 76 77 77 76 74 69 68 65 66 66 64 64 66 72 74 79 82 81 80 79 76 73 72 72 68 68 74 74
140 149 158 130 125 121 120 123 120 117 112 110 109 106 104 96 91 92 92 93 90 91 92 91 92 97 92 87 91 92 91 88 85 85 86 85 83 81 80 80 80 80 80 83 83 81 81 84 84 83 82 79 76 73 72 76 80 82 82 80 78 76 73 69 67 66 64 63 62 60 60 65 67 76 79 78 76 74 73 74 72 72 73 76 75
136 147 133 124 122 118 122 120 114 111 114 116 112 104 100 96 97 96 95 96 95 94 93 96 100 96 91 94 93 92 92 94 89 84 85 86 83 83 87 84 81 80 81 81 81 84 87 89 87 86 84 83 80 73 71 76 81 84 82 81 81 78 74 71 68 65 64 64 67 66 56 53 66 74 78 79 78 77 76 76 76 78 76 77 77
133 135 129 122 118 116 119 119 118 114 110 105 102 105 105 104 103 105 104 102 101 100 99 99 99 99 97 94 94 93 92 92 92 88 80 85 88 84 81 82 85 87 86 84 83 83 86 89 90 85 82 76 69 68 72 77 83 86 85 83 81 78 74 71 70 67 63 61 57 56 52 48 55 73 77 80 79 77 76 77 75 73 75 75 74
138 134 126 121 116 124 124 120 116 115 110 108 118 117 107 105 107 108 106 104 103 102 103 106 107 104 101 96 92 90 90 89 89 88 86 85 86 88 86 85 82 80 81 84 84 84 85 87 92 93 83 73 66 63 67 76 81 83 86 85 82 78 76 73 70 66 64 57 51 48 43 43 48 66 80 82 83 80 80 78 77 75 71 70 70
137 133 125 122 122 129 126 120 119 119 113 108 98 102 104 102 99 106 111 107 102 101 101 98 97 91 90 92 92 92 89 89 88 87 88 90 86 82 83 83 84 84 82 84 85 84 82 86 92 94 83 69 62 59 62 76 84 84 85 85 84 82 79 75 69 65 60 53 47 43 44 47 49 53 73 78 81 80 78 76 74 71 70 69 71
131 128 127 125 126 131 124 121 121 119 116 106 104 106 101 100 105 115 112 108 105 104 102 100 103 102 102 103 99 95 94 94 89 87 85 83 85 89 87 83 82 87 91 87 85 85 87 88 94 95 80 66 61 60 63 76 86 86 85 84 84 84 81 77 70 63 58 54 48 44 43 38 37 46 75 74 73 74 75 76 73 72 71 71 63
133 130 126 128 132 132 124 123 124 122 115 109 114 110 102 102 106 114 114 111 109 106 104 101 94 107 106 103 101 98 98 96 91 88 87 89 87 83 85 88 87 82 81 83 86 86 86 87 90 94 80 65 61 60 63 72 81 85 84 82 81 78 76 71 65 57 51 48 46 47 44 35 35 48 72 73 71 69 63 55 67 72 72 72 73
133 126 132 132 136 133 129 125 124 119 118 115 103 114 109 107 109 115 117 114 113 106 99 101 109 108 111 109 103 104 100 94 96 95 96 88 84 84 85 84 86 85 82 83 82 84 87 92 94 92 79 67 62 60 64 75 81 84 86 85 83 80 74 67 61 52 51 43 39 35 42 49 44 67 76 75 74 67 57 64 83 86 71 67 67
133 134 135 134 141 138 133 129 124 123 120 114 117 116 113 109 114 119 115 108 110 108 107 108 108 102 99 101 99 98 98 95 92 92 94 91 90 89 87 87 87 86 86 85 87 86 86 85 90 97 81 66 60 61 66 70 75 80 82 81 80 78 76 70 58 62 57 53 48 34 21 24 15 50 80 80 76 76 71 61 65 76 77 72 73
137 138 139 139 145 141 136 132 131 130 128 119 118 116 111 113 116 121 115 113 108 107 110 112 109 108 107 97 96 93 93 93 92 99 93 89 87 86 88 89 89 89 86 84 84 88 88 89 95 98 78 64 59 62 68 72 73 74 76 76 78 77 75 70 65 61 56 51 47 38 32 23 20 59 68 69 67 64 71 66 66 71 70 76 73
140 142 141 141 144 142 137 137 135 135 132 125 121 121 117 117 119 118 116 108 106 106 111 110 105 105 108 106 107 110 110 103 105 102 97 91 88 85 86 86 89 92 91 92 90 89 89 87 90 94 78 66 61 63 67 69 69 68 69 76 80 79 74 72 71 66 59 54 50 39 31 25 30 68 65 64 66 63 63 64 61 59 71 78 80
142 143 145 142 147 145 137 136 138 136 133 131 123 119 117 120 122 119 114 108 109 110 110 112 115 115 110 107 104 105 109 113 109 106 98 96 94 91 88 85 85 87 88 89 86 85 87 89 93 94 78 66 65 64 66 67 65 62 59 63 68 73 73 70 67 67 63 58 53 48 26 17 49 74 70 68 70 68 64 65 64 69 70 67 65
143 145 143 139 145 144 140 138 138 137 136 131 128 122 114 116 113 121 120 118 115 114 113 114 114 114 116 126 120 110 99 103 100 102 104 100 98 96 91 91 90 88 87 85 87 86 86 87 91 91 75 67 64 63 63 64 63 60 58 53 57 65 82 77 68 66 64 58 46 43 22 17 69 73 73 72 69 67 67 71 74 72 76 81 80
144 144 139 137 138 141 138 140 137 138 137 134 133 129 124 116 115 116 116 118 117 116 115 125 122 120 123 128 95 86 81 84 100 102 101 104 106 103 99 96 96 94 95 97 95 95 94 92 90 85 75 68 64 59 59 60 58 57 55 53 50 74 98 96 82 71 70 64 53 46 26 22 70 71 71 73 72 68 65 65 71 76 78 72 73
143 141 142 139 142 143 143 139 141 139 137 137 134 133 126 123 119 115 117 123 125 122 122 123 131 99 83 84 77 82 84 88 88 94 100 102 99 98 103 104 104 102 100 102 103 104 101 97 93 89 72 63 61 55 50 50 49 47 54 55 53 78 89 93 91 91 89 82 75 58 37 31 62 68 69 66 63 68 68 71 73 69 61 70 78
147 146 147 146 149 153 145 139 140 138 136 137 138 138 135 130 121 115 115 119 124 126 125 127 104 91 86 78 86 85 88 87 83 81 94 98 94 93 99 103 102 105 102 102 105 105 104 102 100 94 79 60 53 47 41 40 36 35 44 51 47 81 98 101 98 100 103 99 85 56 33 64 72 73 70 65 65 67 68 70 71 77 84 85 74
150 154 150 150 155 157 149 134 149 145 143 140 142 143 140 135 131 130 124 118 116 118 120 111 110 104 94 92 90 89 89 88 91 91 93 98 94 91 95 105 109 106 110 110 111 111 109 108 108 103 83 70 57 45 35 32 27 26 34 47 45 79 97 103 115 107 107 93 61 48 9 15 83 77 68 71 80 75 74 70 73 78 76 76 90
155 158 158 160 157 160 152 157 157 156 152 149 147 146 144 139 137 133 129 127 127 126 127 123 120 118 113 107 100 92 86 88 93 95 104 104 101 100 98 100 113 115 115 116 117 120 117 117 112 106 97 81 72 57 30 27 23 15 23 44 47 67 81 95 121 125 119 118 126 353 342 310 88 79 83 86 88 82 71 64 61 67 77 95 123
159 167 165 167 164 163 165 164 167 162 156 152 149 147 149 140 134 133 134 135 134 134 132 126 125 128 123 120 111 103 102 102 95 104 103 109 117 113 114 116 118 117 114 122 121 124 130 124 126 119 102 62 27 17 10 14 13 4 19 25 59 42 75 112 122 134 126 133 113 331 22 38 83 71 83 78 76 65 74 89 76 71 71 290 41
168 168 180 169 169 169 170 170 166 168 161 158 157 148 144 148 139 141 141 138 137 135 137 145 142 143 139 134 130 130 122 114 116 112 113 119 120 125 115 114 117 117 129 127 135 135 136 142 137 135 106 68 19 4 349 339 342 353 5 8 55 42 36 144 132 140 154 169 332 288 59 100 110 131 124 44 35 70 59 50 77 40 10 346 336
169 170 179 180 175 172 172 174 174 170 167 163 162 155 158 148 152 148 149 149 155 151 156 153 156 156 158 154 153 147 141 138 138 142 137 138 137 132 129 126 132 135 137 144 140 143 153 157 154 144 136 78 6 345 339 331 324 328 356 355 1 60 50 200 156 158 181 205 237 266 276 235 223 15 19 142 135 93 46 16 48 329 312 335 348
173 176 173 183 174 177 181 179 174 173 170 171 163 162 164 159 158 160 160 161 166 167 167 166 168 170 170 167 162 159 149 151 152 142 134 134 146 143 143 145 146 148 142 135 150 159 180 176 110 122 34 343 320 314 320 315 309 322 339 340 325 351 126 202 185 182 195 221 231 269 274 273 178 183 208 204 49 130 264 10 52 311 312 317 314
173 166 167 180 181 180 180 184 179 173 175 174 169 174 172 166 170 171 170 172 175 176 177 178 179 180 179 174 171 158 152 154 148 143 143 147 146 150 152 152 151 150 136 142 148 175 152 179 333 335 275 276 289 286 302 298 287 290 323 317 315 308 178 193 200 181 200 209 226 256 270 285 288 280 295 150 234 146 182 226 226 220 260 256 225
150 164 180 179 183 183 181 182 180 179 180 177 180 176 173 179 178 179 176 182 180 183 180 188 188 188 184 181 167 155 156 159 164 157 157 160 161 169 180 170 168 181 170 164 182 184 230 224 224 236 245 226 249 276 276 260 274 280 268 270 275 290 197 195 191 192 203 205 218 228 249 258 272 267 272 271 256 172 206 226 234 234 215 252 279
177 186 176 184 180 185 186 176 182 181 185 180 175 175 187 184 183 182 180 188 187 183 190 193 198 191 189 176 167 174 166 169 179 174 170 173 175 182 187 185 186 192 194 174 194 205 215 233 229 228 230 204 237 255 261 252 252 260 296 290 266 252 249 201 188 200 209 209 223 225 230 250 261 263 261 276 270 207 228 228 226 236 236 218 217
181 187 179 180 181 187 188 178 182 179 184 182 178 183 188 186 188 183 192 191 185 194 195 198 195 195 193 180 180 172 172 173 186 181 187 179 189 192 190 192 201 208 194 185 196 213 223 237 254 265 253 255 265 240 240 251 250 243 263 297 300 266 244 223 198 203 213 213 220 232 231 234 251 267 270 259 261 261 249 258 229 234 245 224 220
192 195 190 183 188 186 187 186 182 181 180 180 185 185 186 186 186 188 196 189 195 199 197 196 202 198 196 184 171 167 175 178 182 192 175 190 196 193 189 205 208 212 182 210 199 211 219 219 230 240 236 254 267 283 252 248 241 250 246 286 291 285 268 254 223 216 224 224 221 231 231 233 238 250 257 258 263 273 261 263 248 244 252 274 243
197 195 190 196 187 182 187 191 185 182 180 178 187 184 185 187 191 192 196 184 203 199 194 194 209 196 198 191 184 164 175 182 188 189 178 197 199 199 196 208 211 213 187 209 212 206 218 214 226 241 244 246 249 247 259 284 294 289 280 260 274 271 276 261 247 224 224 227 230 234 239 235 235 238 247 257 260 262 268 265 259 258 248 251 257
190 200 199 200 187 178 191 193 186 183 178 184 185 189 182 190 192 193 190 193 198 195 197 197 201 207 199 194 191 174 174 184 188 186 196 195 199 199 209 205 216 221 202 217 206 213 216 209 204 213 220 229 236 239 232 258 270 289 273 261 262 268 271 264 256 254 250 233 232 233 238 238 238 237 239 246 254 259 265 270 273 272 265 254 259
192 201 200 197 190 189 188 194 186 183 180 186 185 189 189 191 192 191 195 197 194 194 196 197 198 203 203 190 193 188 175 184 185 192 193 195 201 205 212 201 218 218 208 213 208 211 212 215 213 215 216 214 237 254 245 239 262 257 270 271 273 275 270 270 265 253 243 247 239 237 236 240 241 242 242 243 247 252 253 261 268 270 269 264 261
200 193 196 196 201 195 189 193 188 184 185 186 187 191 188 190 191 194 194 196 198 195 195 197 197 199 203 195 190 189 181 174 187 187 197 201 202 210 211 211 213 205 198 203 199 207 218 227 249 243 243 241 262 265 265 238 251 261 260 260 260 260 258 266 264 265 258 249 240 238 243 241 241 245 245 246 247 248 250 252 256 264 268 269 271
192 192 190 200 199 197 190 185 192 190 192 186 184 188 190 188 189 192 192 191 198 197 201 197 192 195 196 202 195 192 190 183 171 187 185 195 208 211 222 221 216 194 182 178 188 186 202 206 232 193 229 216 232 247 255 268 261 263 257 252 255 250 253 257 253 251 255 256 249 241 239 247 250 247 248 248 248 251 256 255 254 257 262 267 272
189 193 197 199 193 195 187 191 189 194 193 193 186 189 187 186 185 187 191 189 193 198 196 195 190 189 188 199 200 197 196 188 183 170 176 176 191 210 219 236 225 193 178 184 186 188 185 209 198 212 226 229 242 265 243 254 266 274 267 265 257 259 262 256 260 260 253 252 252 252 241 238 241 248 250 255 255 253 253 256 258 258 258 261 266
194 197 198 192 197 196 188 190 185 193 196 195 193 189 187 188 186 186 184 189 191 197 197 196 192 187 187 193 199 201 200 198 188 174 174 179 177 192 213 219 249 243 188 178 172 193 207 223 224 209 229 252 248 268 244 259 262 267 268 270 264 265 265 266 262 260 255 255 255 257 250 244 240 239 244 248 253 257 255 256 257 258 260 262 263
194 195 194 192 197 197 192 190 185 191 192 193 190 189 187 188 188 188 190 188 194 200 200 195 194 195 195 196 196 197 202 202 201 188 180 192 184 183 203 205 195 212 244 188 184 203 195 205 219 218 210 243 234 260 275 258 263 261 269 271 267 270 267 262 262 256 265 257 257 255 258 254 247 243 245 248 254 258 265 265 265 267 267 268 267
195 195 195 191 194 193 194 194 188 187 185 186 187 186 188 184 186 189 189 196 202 200 198 191 199 200 197 203 195 195 199 202 205 202 201 193 194 197 202 198 188 194 211 203 203 193 203 201 233 221 205 210 237 238 255 258 254 267 272 268 269 258 254 256 254 263 257 260 256 253 246 254 256 259 260 260 257 259 266 270 273 275 274 272 271
200 195 194 196 189 191 192 195 188 187 183 179 180 180 176 178 180 183 195 205 207 208 199 200 200 195 200 201 197 198 199 198 200 203 207 206 199 198 208 212 194 199 199 202 205 199 226 216 216 234 211 214 221 226 237 248 262 263 266 265 265 261 262 261 261 258 256 251 254 254 266 257 263 267 268 271 268 273 273 270 268 267 270 271 275
204 193 192 192 192 190 191 193 194 187 180 175 170 174 174 179 184 200 212 212 208 207 210 207 197 200 200 198 200 204 205 199 199 202 203 203 212 207 209 225 220 193 193 189 210 210 219 213 232 233 248 266 252 250 241 248 261 263 267 275 261 263 266 254 253 246 251 250 249 255 259 274 277 268 266 264 275 277 275 276 275 274 275 272 267
207 198 190 195 192 189 185 195 194 184 179 181 183 181 184 190 198 200 207 201 206 205 210 209 206 205 197 197 198 203 204 208 205 196 204 199 208 229 229 219 217 200 207 222 226 233 222 202 222 205 234 252 260 224 244 207 264 284 275 277 285 251 251 254 249 250 245 251 264 262 257 262 259 263 262 266 264 260 260 264 266 270 271 273 278
212 202 200 198 194 189 190 193 186 188 190 190 188 191 194 197 195 205 199 195 197 201 212 207 207 205 202 197 199 199 200 203 204 207 206 200 202 209 213 219 216 219 220 225 230 221 211 212 208 260 208 226 250 202 215 125 245 232 285 313 304 297 259 252 253 256 262 267 258 255 259 259 263 263 264 260 259 252 253 253 256 258 260 262 266
202 202 206 198 194 192 194 187 187 189 196 193 187 196 199 198 193 196 187 202 221 209 205 203 198 204 206 202 198 195 196 202 203 205 208 212 212 206 208 209 211 221 230 236 221 216 207 211 205 225 254 218 246 254 197 186 234 174 138 342 299 336 337 308 306 270 250 252 258 260 265 261 262 262 268 275 264 260 257 256 258 257 257 256 256
203 206 208 205 200 198 194 190 189 192 194 195 196 200 194 188 192 171 181 179 191 199 205 211 207 206 215 208 207 194 195 200 200 202 207 209 207 211 213 211 218 217 224 234 226 226 205 212 216 231 234 267 220 251 190 202 202 129 298 207 248 59 312 309 302 275 240 249 204 247 227 252 260 268 277 264 262 265 263 260 256 255 254 254 250
203 203 201 202 200 200 199 193 190 193 195 193 196 187 161 160 164 124 121 169 43 154 185 225 210 206 209 204 213 198 198 201 200 202 201 211 213 217 216 215 214 218 219 228 219 214 212 210 197 198 200 216 251 244 235 192 210 204 183 315 334 4 227 282 339 298 213 232 251 233 232 245 259 261 261 265 265 262 264 264 258 255 257 254 254
207 206 202 203 200 202 200 198 195 195 197 195 189 173 179 176 170 179 191 197 209 191 203 206 195 201 208 195 200 192 190 194 193 194 200 205 216 219 225 237 219 200 198 217 225 226 218 190 196 199 212 215 231 257 264 262 237 222 227 221 193 249 292 266 329 303 328 207 236 212 228 225 237 257 252 261 263 260 249 263 257 261 254 251 252
212 202 203 203 205 205 202 198 197 198 196 188 179 175 180 186 189 196 200 202 207 221 206 163 184 202 170 178 186 183 182 179 189 193 201 205 211 221 224 215 209 214 215 233 247 231 230 217 171 199 237 226 206 237 249 228 109 261 236 241 258 263 282 318 279 321 309 308 164 195 257 241 247 247 253 254 263 270 265 253 262 259 258 254 254
204 195 200 201 201 202 195 200 200 196 192 177 178 184 186 192 194 201 202 205 208 205 182 183 168 155 161 169 136 131 127 133 126 115 116 128 153 157 191 218 266 358 91 13 316 331 342 297 184 186 214 213 207 220 240 214 201 254 225 280 295 303 288 228 234 245 277 288 305 294 220 219 247 262 257 266 263 261 271 266 262 261 257 256 253
192 191 198 199 198 196 195 193 198 193 191 179 182 192 194 190 194 195 203 210 182 175 164 136 139 144 120 99 104 101 95 108 129 128 112 102 98 100 96 89 86 60 67 73 47 49 48 39 46 148 174 241 225 262 298 265 205 279 61 268 214 254 282 302 329 318 268 299 294 285 304 311 305 279 272 244 266 273 273 277 271 266 268 265 254
210 208 209 190 191 184 188 189 201 196 190 186 187 192 193 181 188 192 193 180 149 121 131 138 138 132 121 128 127 119 120 111 112 111 109 110 101 90 82 86 87 82 77 85 68 51 35 34 31 28 354 293 254 220 228 255 221 236 237 188 281 348 345 308 277 291 272 234 268 290 296 304 308 306 310 303 295 291 287 285 283 271 267 267 264
220 209 209 200 194 194 191 194 201 192 188 189 185 191 187 183 188 184 178 168 164 154 135 129 128 119 133 141 134 138 128 129 127 139 141 141 120 110 103 97 95 105 95 81 85 83 49 46 48 60 49 27 350 331 286 263 297 313 346 103 223 250 267 297 307 276 272 296 300 289 288 281 282 295 284 270 296 290 285 288 290 286 279 277 269